Wind_Speed
19 18 18 18 17 17 17 18 19 20 20 20 20 19 18 17 16 15 15 14 14 13 13 13 13 13 14 14 14 14 13 12 12 12 12 11 11 11 11 11 11 14 17
20 20 19 19 20 20 21 21 21 21 22 22 22 21 20 19 19 18 18 17 17 17 16 16 16 16 16 17 17 17 16 15 15 14 14 14 13 13 13 13 12 12 13
21 21 21 22 22 22 22 22 22 22 23 23 22 22 21 21 21 21 21 20 20 20 19 19 19 19 19 19 19 19 18 17 17 17 17 16 15 14 14 13 13 12 12
21 22 23 24 23 23 23 23 23 24 24 24 23 23 23 23 22 22 22 22 22 22 22 21 21 21 21 21 21 20 19 18 18 18 18 17 16 15 15 14 13 12 12
23 24 25 25 24 24 24 24 24 24 25 25 24 24 24 24 24 24 23 23 23 24 23 23 23 23 23 22 22 21 20 19 18 18 18 18 17 16 15 14 14 12 11
24 25 26 25 25 25 25 25 25 26 26 26 26 26 26 25 25 25 25 25 25 25 25 24 24 24 23 23 22 22 21 20 19 19 19 18 17 16 15 15 14 14 13
23 24 26 26 26 26 27 27 27 27 27 27 28 28 28 28 28 28 27 27 27 27 27 26 25 25 24 24 23 23 23 22 21 20 19 19 17 16 16 15 15 15 15
24 25 26 28 28 28 29 29 29 29 30 30 30 30 31 31 30 30 29 29 29 29 28 28 27 27 26 26 25 25 24 23 22 21 20 20 18 17 16 16 16 15 15
27 27 27 29 30 31 31 31 31 32 32 32 32 32 32 32 32 31 31 30 29 30 30 29 29 28 28 27 26 25 24 23 23 22 21 21 20 18 17 17 16 16 16
30 31 32 32 33 33 34 34 34 34 34 34 34 33 32 32 31 31 30 29 29 29 30 29 29 28 27 27 26 25 24 24 24 23 22 22 22 20 19 18 17 17 16
31 31 33 33 32 33 33 34 35 35 35 35 34 33 31 30 29 29 28 27 28 28 28 28 27 27 26 26 26 25 24 24 24 24 23 23 24 23 21 20 19 18 18
30 30 30 31 31 31 31 32 33 33 34 35 34 33 32 31 30 29 28 27 27 27 27 27 27 26 26 26 26 26 26 26 26 25 25 25 26 26 24 23 22 21 21
30 29 29 30 32 33 32 32 32 33 34 35 35 35 34 33 32 31 30 30 30 30 30 30 29 29 29 29 29 28 28 29 29 28 28 28 28 29 28 27 26 25 25
30 31 31 32 34 35 36 36 35 35 36 36 37 37 37 36 35 34 33 33 32 33 33 33 33 32 32 32 33 32 32 33 33 33 32 32 33 33 33 32 31 30 29
35 34 34 34 36 37 38 38 38 37 37 38 38 38 38 38 38 37 36 36 36 36 36 36 36 36 36 36 36 36 36 36 37 37 37 37 38 38 38 37 36 35 34
36 36 35 35 37 38 40 40 40 40 40 40 40 40 41 41 41 41 41 40 40 40 40 40 40 40 40 40 40 39 39 39 40 40 40 41 41 42 42 42 41 40 40
38 38 38 38 39 40 41 42 43 44 44 44 44 45 45 45 45 45 45 45 45 45 45 45 45 45 45 45 44 44 43 43 43 43 43 43 43 43 43 43 43 43 43
41 43 44 44 45 46 47 47 48 49 50 50 50 50 51 51 51 51 51 51 51 51 51 51 51 50 50 50 50 49 49 48 47 47 47 47 46 44 44 44 44 43 43
44 46 48 49 50 51 51 52 53 54 55 55 56 56 57 57 57 57 57 57 57 57 57 57 57 56 56 56 55 55 54 53 53 52 51 51 51 49 48 47 47 46 45
47 49 50 51 52 53 53 54 56 57 58 58 59 60 61 61 61 62 62 62 62 61 60 61 61 60 60 60 60 60 59 59 58 57 56 56 55 54 53 52 51 50 49
49 50 51 52 53 54 55 57 58 59 60 61 62 64 64 65 65 65 64 64 64 64 63 63 63 62 62 62 62 63 63 62 62 61 60 59 59 58 57 55 54 53 52
52 54 55 57 59 61 62 63 64 65 66 66 67 68 69 70 70 70 70 69 68 68 67 67 66 65 64 64 64 64 64 64 64 64 63 62 61 61 59 58 56 55 54
59 60 61 62 64 65 66 67 69 70 71 72 72 72 73 74 74 75 75 75 74 74 73 72 71 70 68 67 66 66 65 64 64 64 64 64 63 62 61 60 59 57 55
68 67 66 66 67 69 71 72 74 74 75 75 75 75 75 76 77 78 78 79 79 78 77 77 76 75 74 72 71 70 69 67 66 65 64 63 63 63 62 60 59 58 57
74 73 72 72 74 75 77 77 77 77 76 76 76 76 76 77 78 79 80 81 81 81 81 80 80 79 79 77 76 75 73 72 71 69 67 65 64 63 62 61 59 58 57
78 78 78 78 79 79 79 78 76 73 71 69 69 70 71 72 73 76 78 79 80 80 81 81 81 81 81 80 79 78 76 75 74 73 71 69 68 66 65 64 62 61 60
Wind_Direction
238 244 252 259 266 275 282 287 289 290 291 293 292 286 278 269 263 260 259 259 261 264 269 274 279 282 283 284 286 287 290 292 292 287 279 271 263 255 250 248 244 238 233
245 250 257 264 270 275 280 282 283 284 285 287 287 282 273 264 259 257 258 258 259 261 264 268 273 276 279 281 283 284 285 287 287 284 276 269 263 257 251 248 246 244 239
255 260 265 269 272 275 277 279 279 280 281 282 282 278 269 261 257 257 258 258 258 260 262 265 269 272 275 278 280 281 282 283 284 283 277 270 264 259 253 249 248 247 245
261 263 266 269 271 272 274 275 276 277 278 278 276 272 266 260 257 257 258 259 259 260 261 263 265 268 270 273 275 276 277 278 279 278 275 270 264 259 254 249 245 246 247
262 263 264 267 268 269 269 271 272 274 274 273 271 266 263 260 258 257 257 258 259 260 261 262 263 264 266 268 269 270 272 273 272 271 269 265 261 256 251 246 242 242 245
265 266 266 266 266 267 268 269 270 271 271 269 267 264 262 260 260 259 258 258 258 259 259 260 261 261 262 263 263 264 265 265 263 262 262 261 256 252 247 242 240 240 242
266 268 269 268 268 269 269 270 270 269 268 266 265 264 264 263 262 262 261 259 258 258 257 257 257 258 258 259 260 260 260 259 256 253 254 255 252 248 243 239 238 239 240
267 267 268 270 271 271 270 270 269 268 267 265 265 265 264 264 264 263 262 260 258 257 256 255 255 256 257 257 258 258 257 255 252 248 246 247 246 243 241 239 239 240 240
273 273 272 271 272 272 271 270 269 268 268 267 266 266 265 265 264 263 261 260 258 257 257 256 256 256 256 257 257 256 255 253 249 245 243 244 243 241 240 240 241 242 241
279 279 278 276 275 274 273 271 269 268 267 266 266 265 264 263 262 260 259 257 256 256 255 255 255 255 256 256 256 255 253 251 247 243 241 242 243 242 240 240 241 244 244
282 281 280 279 277 275 274 272 270 269 267 265 264 262 260 258 257 256 255 253 253 253 254 254 254 254 254 255 255 254 253 250 247 243 241 242 244 244 242 241 241 243 245
282 281 282 282 280 277 274 270 268 267 266 265 262 259 257 255 253 252 251 251 250 251 252 252 252 252 252 253 253 253 252 251 248 246 244 244 246 247 245 243 243 244 246
281 280 279 279 280 278 275 271 268 265 264 263 261 259 257 255 253 251 250 250 249 249 250 251 251 251 251 252 252 252 252 252 251 249 248 248 249 251 250 248 246 247 248
281 279 278 277 276 276 274 272 270 267 264 262 260 259 258 257 255 253 252 251 250 250 251 252 252 252 252 252 252 252 252 253 252 252 251 251 251 253 253 252 251 251 251
283 281 279 276 274 273 272 271 270 268 265 263 261 259 258 258 257 256 255 254 253 252 252 253 254 254 254 254 254 253 252 252 253 254 254 253 253 254 255 255 254 254 254
287 285 282 278 276 275 274 273 271 269 267 264 262 261 259 258 258 257 257 257 256 255 254 254 255 255 256 256 256 256 255 254 254 255 255 255 255 255 255 256 256 255 255
288 287 285 282 279 277 276 275 273 271 269 267 265 263 262 260 259 258 258 258 258 258 257 257 256 257 258 258 259 258 258 257 256 256 256 257 257 257 257 257 257 256 255
285 284 283 282 280 278 277 275 273 272 271 270 268 266 265 263 262 260 259 259 259 259 259 259 258 258 259 259 259 260 259 259 258 257 257 257 257 257 257 257 257 257 255
282 280 279 279 277 276 274 273 272 271 270 269 268 267 266 266 265 264 262 261 260 260 260 260 260 259 259 259 258 258 259 259 258 258 257 257 257 256 256 256 256 257 256
282 280 279 278 276 275 273 272 271 270 269 269 268 267 267 267 267 266 265 263 262 261 260 260 260 260 259 259 258 257 257 257 257 256 256 256 256 256 256 255 255 255 255
285 283 282 280 278 276 275 274 272 271 270 269 269 268 268 267 267 266 265 265 264 263 262 260 260 259 259 258 258 257 257 256 256 255 255 255 255 256 256 255 254 253 253
288 286 284 282 280 280 278 277 275 273 271 270 270 269 269 269 268 267 266 265 265 264 263 262 260 259 259 258 257 257 256 256 255 255 254 254 254 254 255 255 255 253 252
290 287 285 283 282 281 279 277 276 274 273 272 271 271 270 270 270 269 268 267 266 265 263 262 261 259 259 257 257 256 255 254 254 254 253 253 252 253 253 253 254 253 252
293 290 288 285 283 281 280 279 278 277 275 274 273 272 271 270 269 269 268 267 267 266 264 263 262 260 259 257 256 255 254 253 252 252 251 251 251 251 251 251 252 251 251
293 292 290 288 286 285 284 284 283 281 280 278 276 274 272 270 268 267 266 265 264 264 263 262 261 260 258 256 254 253 253 252 251 251 250 250 249 249 249 249 249 249 248
292 292 291 290 289 289 289 289 288 286 285 282 280 278 275 272 269 266 264 262 261 260 259 258 258 257 256 254 253 251 250 250 249 249 249 248 248 247 247 247 247 247 247
Height
5867 5867 5867 5867 5866 5866 5866 5865 5865 5864 5864 5863 5862 5862 5861 5861 5860 5860 5860 5860 5859 5859 5859 5859 5859 5859 5859 5859 5859 5858 5858 5857 5857 5857 5857 5857 5857 5857 5858 5858 5859 5860 5861
5864 5864 5864 5864 5863 5863 5862 5862 5861 5861 5860 5859 5859 5858 5858 5857 5857 5857 5857 5856 5856 5856 5856 5856 5856 5856 5856 5856 5856 5856 5856 5855 5855 5855 5854 5854 5854 5855 5855 5856 5856 5857 5858
5861 5861 5861 5860 5859 5859 5858 5858 5857 5856 5856 5855 5854 5854 5854 5853 5853 5853 5853 5853 5853 5853 5852 5852 5852 5852 5852 5852 5852 5852 5852 5852 5852 5852 5851 5851 5851 5852 5852 5853 5854 5855 5856
5856 5856 5856 5855 5855 5854 5853 5853 5852 5851 5851 5850 5850 5849 5849 5849 5849 5848 5848 5848 5848 5848 5848 5848 5848 5848 5848 5848 5848 5848 5849 5849 5848 5848 5848 5848 5848 5849 5849 5850 5851 5852 5853
5851 5851 5851 5850 5849 5849 5848 5847 5847 5846 5846 5845 5845 5844 5844 5844 5844 5844 5843 5843 5843 5843 5843 5843 5843 5843 5843 5844 5844 5844 5844 5845 5845 5844 5844 5844 5845 5845 5846 5847 5848 5849 5849
5846 5846 5845 5845 5844 5843 5843 5842 5841 5841 5840 5840 5840 5839 5839 5839 5838 5838 5838 5838 5838 5838 5838 5838 5838 5838 5838 5838 5839 5839 5840 5840 5840 5840 5840 5840 5841 5842 5843 5844 5844 5845 5846
5842 5841 5840 5840 5839 5838 5837 5836 5836 5835 5835 5834 5834 5833 5833 5833 5833 5832 5832 5832 5832 5832 5832 5832 5832 5833 5833 5833 5833 5834 5834 5835 5836 5836 5836 5836 5837 5838 5839 5840 5841 5842 5843
5838 5837 5836 5835 5834 5833 5832 5830 5830 5829 5828 5828 5828 5827 5827 5826 5826 5826 5825 5825 5825 5825 5825 5826 5826 5827 5827 5827 5828 5828 5829 5829 5831 5832 5832 5832 5833 5834 5835 5836 5838 5839 5840
5832 5831 5831 5829 5828 5827 5825 5824 5823 5822 5822 5821 5821 5820 5820 5819 5819 5818 5818 5818 5819 5819 5819 5819 5820 5821 5821 5822 5822 5823 5823 5824 5825 5827 5828 5828 5829 5830 5831 5833 5834 5835 5836
5826 5825 5823 5822 5821 5820 5818 5817 5816 5815 5814 5814 5813 5813 5813 5812 5811 5811 5811 5811 5811 5811 5812 5813 5813 5814 5815 5816 5816 5817 5818 5819 5820 5822 5823 5824 5825 5826 5827 5828 5830 5831 5832
5820 5818 5815 5814 5814 5812 5811 5809 5808 5807 5806 5806 5806 5805 5805 5804 5804 5804 5803 5804 5804 5804 5805 5806 5807 5808 5809 5810 5811 5812 5813 5814 5815 5817 5819 5819 5820 5821 5823 5824 5825 5827 5828
5813 5811 5809 5807 5806 5805 5804 5802 5801 5800 5799 5798 5797 5797 5797 5796 5796 5796 5796 5796 5797 5797 5798 5799 5800 5801 5802 5803 5805 5806 5807 5808 5810 5812 5814 5815 5815 5816 5817 5819 5820 5822 5823
5807 5806 5804 5802 5799 5797 5796 5795 5794 5793 5791 5790 5789 5789 5788 5788 5788 5788 5789 5789 5789 5789 5790 5791 5792 5794 5795 5796 5798 5799 5801 5802 5804 5805 5807 5809 5810 5810 5812 5813 5815 5816 5818
5801 5799 5798 5796 5793 5790 5788 5787 5786 5785 5784 5783 5782 5781 5780 5780 5780 5780 5781 5781 5781 5782 5782 5783 5784 5785 5787 5788 5790 5792 5793 5795 5796 5798 5800 5802 5803 5804 5805 5807 5809 5810 5812
5793 5792 5790 5787 5785 5782 5779 5777 5776 5775 5774 5774 5773 5772 5772 5771 5771 5771 5772 5772 5772 5773 5773 5774 5775 5776 5778 5779 5781 5783 5785 5786 5787 5789 5791 5793 5795 5796 5797 5799 5801 5803 5805
5785 5783 5781 5779 5776 5773 5771 5769 5766 5765 5764 5763 5762 5761 5761 5761 5761 5761 5761 5762 5763 5763 5764 5765 5766 5767 5768 5769 5771 5773 5775 5776 5778 5780 5781 5783 5785 5787 5789 5791 5793 5795 5798
5778 5775 5772 5770 5767 5764 5761 5759 5757 5754 5753 5752 5751 5750 5749 5749 5749 5749 5749 5750 5750 5751 5752 5754 5755 5756 5757 5758 5760 5762 5764 5766 5768 5770 5771 5773 5775 5778 5780 5781 5783 5786 5788
5770 5766 5762 5759 5756 5753 5750 5748 5745 5743 5740 5739 5738 5737 5736 5735 5735 5735 5736 5736 5737 5738 5739 5740 5742 5743 5745 5746 5748 5749 5751 5754 5756 5758 5760 5762 5764 5767 5769 5771 5773 5775 5778
5760 5755 5751 5747 5743 5740 5737 5734 5731 5729 5727 5724 5723 5721 5721 5720 5720 5720 5720 5721 5722 5723 5724 5725 5727 5729 5731 5732 5734 5736 5738 5740 5742 5745 5748 5750 5752 5755 5758 5760 5762 5765 5767
5748 5744 5739 5734 5730 5726 5722 5719 5716 5713 5711 5708 5707 5705 5703 5703 5702 5702 5703 5704 5705 5706 5708 5709 5711 5713 5715 5717 5719 5721 5723 5725 5728 5731 5733 5736 5739 5742 5745 5748 5751 5753 5756
5736 5730 5725 5720 5715 5711 5707 5703 5699 5696 5694 5691 5689 5687 5685 5684 5684 5684 5685 5685 5686 5688 5689 5691 5693 5696 5698 5700 5702 5705 5707 5710 5712 5715 5718 5721 5724 5728 5731 5734 5737 5741 5744
5722 5715 5709 5704 5698 5693 5689 5684 5680 5677 5674 5672 5671 5669 5667 5665 5665 5665 5665 5666 5667 5668 5670 5672 5675 5678 5680 5682 5685 5688 5691 5694 5696 5699 5702 5706 5709 5712 5716 5719 5723 5727 5730
5705 5698 5691 5685 5679 5673 5668 5663 5659 5655 5652 5649 5648 5647 5646 5644 5644 5643 5643 5644 5646 5648 5650 5652 5655 5658 5661 5664 5667 5670 5673 5677 5680 5683 5686 5689 5693 5696 5700 5704 5708 5712 5715
5683 5676 5669 5663 5656 5650 5644 5639 5634 5630 5627 5625 5624 5623 5622 5620 5619 5619 5619 5620 5622 5624 5627 5629 5632 5636 5640 5644 5647 5650 5654 5658 5662 5666 5669 5673 5676 5680 5684 5688 5692 5696 5701
5660 5653 5646 5639 5632 5625 5619 5613 5608 5604 5601 5599 5597 5596 5596 5595 5593 5593 5593 5595 5597 5599 5602 5605 5608 5612 5616 5620 5625 5629 5634 5638 5642 5647 5652 5656 5659 5663 5667 5671 5676 5681 5685
5638 5630 5623 5615 5608 5600 5594 5588 5583 5578 5575 5572 5570 5568 5567 5567 5566 5565 5565 5567 5570 5573 5576 5579 5582 5586 5591 5596 5601 5606 5612 5617 5622 5626 5632 5637 5641 5646 5650 5654 5659 5664 5669